• In Uzbekistan
  • List of Countries
  • For 7 days
  • Water Temperature
  • Satellite Maps
  • Weather Map
  • Weather Widgets
  • user-avatar
    Login

    Hourly Weather Artashat

    Today, 23 November, Thursday

    Time Temperature Precipitation Wind Pressure Humidity
    00:00 -3°C° 0 mm 1 mps 594 mmHg 69%
    01:00 -3°C° 0.1 mm 1 mps 594 mmHg 68%
    02:00 -3°C° 0.1 mm 1 mps 594 mmHg 67%
    03:00 -3°C° 0.1 mm 1 mps 594 mmHg 67%
    04:00 -4°C° 0 mm 1 mps 594 mmHg 67%
    05:00 -6°C° 0 mm 2 mps 595 mmHg 67%
    06:00 -6°C° 0 mm 2 mps 595 mmHg 68%
    07:00 -6°C° 0 mm 2 mps 595 mmHg 64%
    08:00 -5°C° 0 mm 2 mps 595 mmHg 60%
    09:00 -5°C° 0 mm 3 mps 596 mmHg 57%
    10:00 -5°C° 0 mm 3 mps 596 mmHg 53%
    11:00 -4°C° 0 mm 3 mps 596 mmHg 49%
    12:00 -2°C° 0 mm 3 mps 596 mmHg 45%
    13:00 -2°C° 0 mm 3 mps 596 mmHg 46%
    14:00 -2°C° 0 mm 3 mps 596 mmHg 46%
    15:00 -2°C° 0 mm 3 mps 596 mmHg 46%
    16:00 -4°C° 0 mm 3 mps 596 mmHg 52%
    17:00 -4°C° 0 mm 2 mps 596 mmHg 57%
    18:00 -4°C° 0 mm 2 mps 596 mmHg 62%
    19:00 -5°C° 0.1 mm 2 mps 596 mmHg 65%
    20:00 -5°C° 0.1 mm 2 mps 596 mmHg 68%
    21:00 -6°C° 0.1 mm 2 mps 596 mmHg 70%
    22:00 -4°C° 0.1 mm 1 mps 596 mmHg 72%
    23:00 -4°C° 0.1 mm 1 mps 596 mmHg 74%

    Tomorrow, 24 November, Friday

    Time Temperature Precipitation Wind Pressure Humidity
    00:00 -4°C° 0.1 mm 1 mps 596 mmHg 76%
    01:00 -4°C° 0.3 mm 1 mps 596 mmHg 77%
    02:00 -6°C° 0.3 mm 1 mps 597 mmHg 77%
    03:00 -6°C° 0.3 mm 1 mps 597 mmHg 77%
    04:00 -6°C° 0.2 mm 1 mps 597 mmHg 77%
    05:00 -7°C° 0.2 mm 1 mps 597 mmHg 76%
    06:00 -7°C° 0.2 mm 1 mps 597 mmHg 76%
    07:00 -7°C° 0.1 mm 1 mps 597 mmHg 73%
    08:00 -7°C° 0.1 mm 1 mps 597 mmHg 70%
    09:00 -6°C° 0.1 mm 1 mps 598 mmHg 67%
    10:00 -6°C° 0.1 mm 1 mps 598 mmHg 62%
    11:00 -4°C° 0.1 mm 1 mps 598 mmHg 57%
    12:00 -4°C° 0.1 mm 1 mps 598 mmHg 52%
    13:00 -4°C° 0 mm 1 mps 598 mmHg 50%
    14:00 -4°C° 0 mm 1 mps 598 mmHg 48%
    15:00 -4°C° 0 mm 1 mps 598 mmHg 46%
    16:00 -6°C° 0 mm 1 mps 598 mmHg 49%
    17:00 -7°C° 0 mm 1 mps 598 mmHg 52%
    18:00 -8°C° 0 mm 1 mps 598 mmHg 55%
    19:00 -9°C° 0 mm 2 mps 598 mmHg 55%
    20:00 -10°C° 0 mm 2 mps 599 mmHg 55%
    21:00 -10°C° 0 mm 2 mps 599 mmHg 54%
    22:00 -10°C° 0 mm 2 mps 599 mmHg 55%
    23:00 -10°C° 0 mm 2 mps 599 mmHg 56%

    Day after tomorrow, 25 November, Saturday

    Time Temperature Precipitation Wind Pressure Humidity
    00:00 -10°C° 0 mm 2 mps 599 mmHg 57%
    01:00 -12°C° 0 mm 2 mps 599 mmHg 58%
    02:00 -12°C° 0 mm 2 mps 599 mmHg 58%
    03:00 -12°C° 0 mm 2 mps 599 mmHg 58%
    04:00 -12°C° 0 mm 2 mps 600 mmHg 58%
    05:00 -12°C° 0 mm 2 mps 600 mmHg 57%
    06:00 -12°C° 0 mm 2 mps 600 mmHg 57%
    07:00 -10°C° 0 mm 2 mps 601 mmHg 55%
    08:00 -10°C° 0 mm 2 mps 602 mmHg 52%
    09:00 -8°C° 0 mm 1 mps 602 mmHg 50%
    10:00 -7°C° 0 mm 1 mps 602 mmHg 48%
    11:00 -6°C° 0 mm 1 mps 603 mmHg 46%
    12:00 -4°C° 0 mm 1 mps 603 mmHg 44%
    13:00 -3°C° 0 mm 1 mps 603 mmHg 44%
    14:00 -3°C° 0 mm 1 mps 603 mmHg 44%
    15:00 -3°C° 0 mm 1 mps 603 mmHg 45%
    16:00 -4°C° 0 mm 1 mps 603 mmHg 48%
    17:00 -8°C° 0 mm 2 mps 603 mmHg 51%
    18:00 -9°C° 0 mm 2 mps 602 mmHg 54%
    19:00 -9°C° 0 mm 2 mps 603 mmHg 54%
    20:00 -9°C° 0 mm 2 mps 603 mmHg 53%
    21:00 -10°C° 0 mm 2 mps 603 mmHg 52%
    22:00 -9°C° 0 mm 1 mps 603 mmHg 51%
    23:00 -9°C° 0 mm 1 mps 603 mmHg 50%

    26 November, Sunday

    Time Temperature Precipitation Wind Pressure Humidity
    00:00 -9°C° 0 mm 1 mps 603 mmHg 49%
    01:00 -9°C° 0 mm 1 mps 602 mmHg 48%
    02:00 -9°C° 0 mm 1 mps 602 mmHg 47%
    03:00 -10°C° 0 mm 1 mps 602 mmHg 46%
    04:00 -10°C° 0 mm 1 mps 602 mmHg 45%
    05:00 -10°C° 0 mm 1 mps 602 mmHg 44%
    06:00 -10°C° 0 mm 1 mps 602 mmHg 43%
    07:00 -8°C° 0 mm 1 mps 602 mmHg 41%
    08:00 -7°C° 0 mm 1 mps 603 mmHg 39%
    09:00 -6°C° 0 mm 1 mps 604 mmHg 37%
    10:00 -4°C° 0 mm 1 mps 604 mmHg 36%
    11:00 -3°C° 0 mm 1 mps 604 mmHg 35%
    12:00 -1°C° 0 mm 1 mps 603 mmHg 34%
    13:00 -1°C° 0 mm 1 mps 603 mmHg 35%
    14:00 -1°C° 0 mm 1 mps 603 mmHg 37%
    15:00 -1°C° 0 mm 1 mps 603 mmHg 39%
    16:00 -3°C° 0 mm 1 mps 602 mmHg 41%
    17:00 -4°C° 0 mm 1 mps 602 mmHg 44%
    18:00 -7°C° 0 mm 1 mps 602 mmHg 47%
    19:00 -7°C° 0 mm 1 mps 602 mmHg 45%
    20:00 -7°C° 0 mm 1 mps 602 mmHg 44%
    21:00 -7°C° 0 mm 1 mps 602 mmHg 42%
    22:00 -7°C° 0 mm 1 mps 602 mmHg 41%
    23:00 -8°C° 0 mm 1 mps 602 mmHg 40%

    27 November, Monday

    Time Temperature Precipitation Wind Pressure Humidity
    00:00 -8°C° 0 mm 1 mps 602 mmHg 39%
    01:00 -8°C° 0 mm 1 mps 602 mmHg 38%
    02:00 -8°C° 0 mm 1 mps 601 mmHg 37%
    03:00 -8°C° 0 mm 1 mps 601 mmHg 36%
    04:00 -8°C° 0 mm 1 mps 601 mmHg 35%
    05:00 -8°C° 0 mm 1 mps 601 mmHg 35%
    06:00 -9°C° 0 mm 1 mps 601 mmHg 34%
    07:00 -7°C° 0 mm 1 mps 602 mmHg 32%
    08:00 -4°C° 0 mm 1 mps 602 mmHg 31%
    09:00 -3°C° 0 mm 1 mps 603 mmHg 30%
    10:00 -2°C° 0 mm 1 mps 603 mmHg 29%
    11:00 -1°C° 0 mm 1 mps 603 mmHg 29%
    12:00 +1°C° 0 mm 1 mps 603 mmHg 28%
    13:00 +1°C° 0 mm 1 mps 602 mmHg 30%
    14:00 +1°C° 0 mm 1 mps 602 mmHg 32%
    15:00 +1°C° 0 mm 1 mps 602 mmHg 33%
    16:00 -1°C° 0 mm 1 mps 601 mmHg 35%
    17:00 -3°C° 0 mm 1 mps 601 mmHg 37%
    18:00 -4°C° 0 mm 1 mps 600 mmHg 39%
    19:00 -4°C° 0 mm 1 mps 600 mmHg 39%
    20:00 -6°C° 0 mm 1 mps 600 mmHg 38%
    21:00 -6°C° 0 mm 1 mps 600 mmHg 37%
    22:00 -6°C° 0 mm 1 mps 600 mmHg 37%
    23:00 -6°C° 0 mm 1 mps 600 mmHg 37%

    28 November, Tuesday

    Time Temperature Precipitation Wind Pressure Humidity
    00:00 -6°C° 0 mm 1 mps 600 mmHg 37%
    01:00 -6°C° 0 mm 1 mps 600 mmHg 38%
    02:00 -6°C° 0 mm 1 mps 600 mmHg 39%
    03:00 -7°C° 0 mm 1 mps 599 mmHg 40%
    04:00 -7°C° 0 mm 1 mps 599 mmHg 41%
    05:00 -7°C° 0 mm 1 mps 599 mmHg 42%
    06:00 -7°C° 0 mm 1 mps 599 mmHg 44%
    07:00 -4°C° 0 mm 1 mps 600 mmHg 43%
    08:00 -3°C° 0 mm 1 mps 601 mmHg 43%
    09:00 -1°C° 0 mm 1 mps 601 mmHg 43%
    10:00 0°C° 0 mm 1 mps 601 mmHg 43%
    11:00 +1°C° 0 mm 1 mps 601 mmHg 44%
    12:00 +2°C° 0 mm 1 mps 601 mmHg 44%
    13:00 +1°C° 0 mm 2 mps 601 mmHg 45%
    14:00 +1°C° 0 mm 2 mps 601 mmHg 47%
    15:00 +1°C° 0 mm 2 mps 601 mmHg 49%
    16:00 -1°C° 0 mm 2 mps 600 mmHg 52%
    17:00 -3°C° 0 mm 2 mps 600 mmHg 55%
    18:00 -4°C° 0 mm 2 mps 600 mmHg 58%
    19:00 -5°C° 0 mm 2 mps 600 mmHg 59%
    20:00 -5°C° 0 mm 2 mps 600 mmHg 59%
    21:00 -5°C° 0 mm 2 mps 600 mmHg 60%
    22:00 -5°C° 0 mm 2 mps 600 mmHg 61%
    23:00 -5°C° 0 mm 2 mps 600 mmHg 61%
    Show more